#timestamp,LO_Frequency,Hit 
1502078415.7,286047025.0,N
1502078435.5,286047023.0,N
1502078455.3,286047020.0,N
1502078475.2,286047022.0,N
1502078495.0,286047023.4,N
1502078495.9,286047023.4,N
1502078515.7,286047023.8,N
1502078535.6,286047024.9,N
1502078555.4,286047024.0,N
1502078575.2,286047022.1,N
1502078595.1,286047023.7,N
1502078596.0,286047023.7,N
1502078615.8,286047028.4,N
1502078635.6,286047025.3,N
1502078655.5,286047027.2,N
1502078675.3,286047030.0,N
1502078695.1,286047026.5,N
1502078715.9,286047022.2,N
1502078735.7,286047024.3,N
1502078755.5,286047024.8,N
1502078775.4,286047025.6,N
1502078795.2,286047024.6,N
1502078815.0,286047024.9,N
1502078815.9,286047024.9,N
1502078835.8,286047024.6,N
1502078855.6,286047024.8,N
1502078875.4,286047025.2,N
1502078895.2,286047024.4,N
1502078915.1,286047023.6,N
1502078916.0,286047023.6,N
1502078935.8,286047021.0,N
1502078955.6,286047025.0,N
1502078975.5,286047016.9,N
1502078995.3,286047016.4,N
1502079015.1,286047021.9,N
1502079035.9,286047022.0,N
1502079055.7,286047021.2,N
1502079075.5,286047020.6,N
1502079095.4,286047021.2,N
1502079115.2,286047022.3,N
1502079135.0,286047023.9,N
1502079135.9,286047023.9,N
1502079155.8,286047022.4,N
1502079175.6,286047023.4,N
1502079195.4,286047024.0,N
1502079215.2,286047024.9,N
1502079235.1,286047021.4,N
1502079236.0,286047021.4,N
1502079255.8,286047021.8,N
1502079275.6,286047020.7,N
1502079295.5,286047021.6,N
1502079315.3,286047021.2,N
1502079335.1,286047021.1,N
1502079355.9,286047019.0,N
1502079375.7,286047021.3,N
1502079395.5,286047021.9,N
1502079415.4,286047019.6,N
1502079435.2,286047021.3,N
1502079455.0,286047020.1,N
1502079455.9,286047020.1,N
1502079475.8,286047017.6,N
1502079495.6,286047017.7,N
1502079515.4,286047021.5,N
1502079535.3,286047020.5,N
1502079555.1,286047022.0,N
1502079556.0,286047022.0,N
1502079575.8,286047017.5,N
1502079595.6,286047015.9,N
1502079615.5,286047014.6,N
1502079635.3,286047020.4,N
1502079655.1,286047018.9,N
1502079675.9,286047018.4,N
1502079695.7,286047019.7,N
1502079715.5,286047020.4,N
1502079735.4,286047021.3,N
1502079755.2,286047020.1,N
1502079775.0,286047016.5,N
1502079775.9,286047016.5,N
1502079795.8,286047014.2,N
1502079815.6,286047016.2,N
1502079835.4,286047019.5,N
1502079855.3,286047019.2,N
1502079875.1,286047016.6,N
1502079876.0,286047016.6,N
1502079895.8,286047017.0,N
1502079915.6,286047017.3,N
1502079935.5,286047021.8,N
1502079955.3,286047018.6,N
1502079975.1,286047014.7,N
1502079995.9,286047015.4,N
1502080015.7,286047018.7,N
1502080035.5,286047014.6,N
1502080055.4,286047015.3,N
1502080075.2,286047014.6,N
1502080095.0,286047018.6,N
1502080095.9,286047018.6,N
1502080115.8,286047020.3,N
1502080135.6,286047017.0,N
1502080155.4,286047018.5,N
1502080175.3,286047017.1,N
1502080195.1,286047015.3,N
1502080196.0,286047015.3,N
1502080215.8,286047017.0,N
1502080235.7,286047017.6,N
1502080255.5,286047019.0,N
1502080275.3,286047018.6,N
1502080295.1,286047016.6,N
1502080315.9,286047012.5,N
1502080335.7,286047014.6,N
1502080355.5,286047020.3,N
1502080375.4,286047019.2,N
1502080395.2,286047018.5,N
1502080415.0,286047018.8,N
1502080415.9,286047018.8,N
1502080435.8,286047015.0,N
1502080455.6,286047016.4,N
1502080475.4,286047016.2,N
1502080495.3,286047016.3,N
1502080515.1,286047017.6,N
1502080516.0,286047017.6,N
1502080535.8,286047018.4,N
1502080555.6,286047015.8,N
1502080575.5,286047016.6,N
1502080595.3,286047018.5,N
1502080615.1,286047016.1,N
1502080635.9,286047017.5,N
1502080655.7,286047017.7,N
1502080675.5,286047015.9,N
1502080695.4,286047020.3,N
1502080715.2,286047020.4,N
1502080735.0,286047020.0,N
1502080735.9,286047020.0,N
1502080755.8,286047017.3,N
1502080775.6,286047015.0,N
1502080795.4,286047015.2,N
1502080815.3,286047013.7,N
1502080835.1,286047013.7,N
1502080836.0,286047013.7,N
1502080855.8,286047012.1,N
1502080875.6,286047011.8,N
1502080895.5,286047009.9,N
1502080915.3,286047010.5,N
1502080935.1,286047007.7,N
1502080955.9,286047011.6,N
1502080975.7,286047011.5,N
1502080995.5,286047012.0,N
1502081015.4,286047012.4,N
1502081035.2,286047012.8,N
1502081055.0,286047013.6,N
1502081055.9,286047013.6,N
1502081075.8,286047010.5,N
1502081095.6,286047009.3,N
1502081115.4,286047013.7,N
1502081135.2,286047011.0,N
1502081155.1,286047014.0,N
1502081156.0,286047014.0,N
1502081175.8,286047011.1,N
1502081195.6,286047011.7,N
1502081215.5,286047013.7,N
1502081235.3,286047013.5,N
1502081255.1,286047013.0,N
1502081275.9,286047011.7,N
1502081295.7,286047012.2,N
1502081315.5,286047009.4,N
1502081335.4,286047012.1,N
1502081355.2,286047013.1,N
1502081375.0,286047012.9,N
1502081375.9,286047012.9,N
1502081395.8,286047009.4,N
1502081415.6,286047007.9,N
1502081435.4,286047010.7,N
1502081455.2,286047013.9,N
1502081475.1,286047012.4,N
1502081476.0,286047012.4,N
1502081495.8,286047013.1,N
1502081515.6,286047011.4,N
1502081535.5,286047014.4,N
1502081555.3,286047013.5,N
1502081575.1,286047009.4,N
1502081595.9,286047012.8,N
1502081615.7,286047014.3,N
1502081635.5,286047011.4,N
1502081655.4,286047012.8,N
1502081675.2,286047011.3,N
1502081695.0,286047012.7,N
1502081695.9,286047012.7,N
1502081715.8,286047011.3,N
1502081735.6,286047009.4,N
1502081755.4,286047010.3,N
1502081775.2,286047013.3,N
1502081795.1,286047012.7,N
1502081796.0,286047012.7,N
1502081815.8,286047012.0,N
1502081835.6,286047006.2,N
1502081855.5,286047006.8,N
1502081875.3,286047010.8,N
1502081895.1,286047011.7,N
1502081915.9,286047010.8,N
1502081935.7,286047010.6,N
1502081955.5,286047012.3,N
1502081975.4,286047008.0,N
1502081995.2,286047010.3,N
